Waukegan, IL

4:27 AM CDT on April 28, 2017 (GMT -0500)
Waukegan Regional

Weather History for KUGN - February, 2013

Change the Weather History Date:

Saturday, February 16, 2013

  Actual Average Record
Temperature  
Mean Temperature 12 °F -  
Max Temperature 18 °F 34 °F 48 °F (2011)
Min Temperature 5 °F 19 °F -4 °F (2007)
Degree Days  
Heating Degree Days 53 39  
Month to date heating degree days 680 654  
Since 1 July heating degree days 4140 4505  
Cooling Degree Days 0 0  
Month to date cooling degree days 0 0  
Year to date cooling degree days 0 0  
Moisture  
Dew Point 3 °F    
Average Humidity 60    
Maximum Humidity 76    
Minimum Humidity 43    
Precipitation  
Precipitation T in 0.06 in 0.92 in (2006)
Month to date precipitation 0.03 0.91  
Year to date precipitation 1.31 2.30  
Sea Level Pressure  
Sea Level Pressure 30.19 in    
Wind  
Wind Speed 7 mph (WNW)    
Max Wind Speed 14 mph    
Max Gust Speed 18 mph    
Visibility 8 miles    
Events Snow    
T = Trace of Precipitation, MM = Missing Value Source: NWS Daily Summary

Daily Weather History Graph

Daily Weather History Graph

Search for Another Location

Airport or City:

Trip Planner

Search our weather history database for the weather conditions in past years. The results will help you decide how hot, cold, wet, or windy it might be!

Date:

Astronomy

Feb. 16, 2013 Rise Set
Actual Time 6:46 AM CST 5:25 PM CST
Civil Twilight 6:17 AM CST 5:54 PM CST
Nautical Twilight 5:44 AM CST 6:27 PM CST
Astronomical Twilight 5:12 AM CST 6:59 PM CST
Moon 9:50 AM CST (2/16) No Moon Set
Length of Visible Light 11h 36m
Length of Day
10h 39m
Waxing Crescent, 39% of the Moon is Illuminated
Feb 16
Waxing Crescent
Feb 17
First Quarter
Feb 25
Full
Mar 4
Last Quarter
Mar 11
New

Hourly Weather History & Observations

Time (CST) Temp. Windchill Dew Point Humidity Pressure Visibility Wind Dir Wind Speed Gust Speed Precip Events Conditions
12:52 AM 15.1 °F 4.2 °F 5.0 °F 64% 30.20 in 10.0 mi NW 8.1 mph - N/A   Clear
1:52 AM 14.0 °F 2.0 °F 3.9 °F 64% 30.20 in 10.0 mi WNW 9.2 mph - N/A   Clear
2:52 AM 12.9 °F 1.6 °F 3.0 °F 65% 30.19 in 10.0 mi WNW 8.1 mph - N/A   Clear
3:52 AM 10.9 °F -1.8 °F 1.9 °F 67% 30.18 in 10.0 mi WNW 9.2 mph - N/A   Clear
4:52 AM 10.0 °F -0.9 °F 1.9 °F 70% 30.19 in 10.0 mi WNW 6.9 mph - N/A   Clear
5:52 AM 9.0 °F 0.6 °F 1.9 °F 73% 30.19 in 10.0 mi WNW 4.6 mph - N/A   Clear
6:52 AM 9.0 °F -0.9 °F 1.9 °F 73% 30.20 in 10.0 mi WNW 5.8 mph - N/A   Clear
7:52 AM 10.9 °F 1.4 °F 3.0 °F 70% 30.21 in 10.0 mi West 5.8 mph - N/A   Scattered Clouds
8:52 AM 12.9 °F 1.6 °F 3.0 °F 65% 30.21 in 10.0 mi WNW 8.1 mph - N/A   Overcast
9:52 AM 15.1 °F 5.2 °F 3.0 °F 59% 30.21 in 10.0 mi Variable 6.9 mph - N/A   Overcast
10:52 AM 16.0 °F 3.6 °F 3.9 °F 59% 30.20 in 10.0 mi WNW 10.4 mph - N/A   Overcast
11:52 AM 17.1 °F 6.6 °F 6.1 °F 62% 30.19 in 6.0 mi WNW 8.1 mph 17.3 mph N/A   Haze
12:52 PM 16.0 °F 3.6 °F 6.1 °F 65% 30.18 in 4.0 mi NNW 10.4 mph - 0.00 in Snow Light Snow
1:13 PM 15.8 °F 2.7 °F 8.6 °F 73% 30.11 in 2.0 mi NW 11.5 mph 18.4 mph 0.00 in Snow Light Snow
1:19 PM 15.8 °F 6.1 °F 8.6 °F 73% 30.11 in 0.8 mi NW 6.9 mph 18.4 mph 0.00 in Snow Light Snow
1:32 PM 15.8 °F 3.4 °F 6.8 °F 68% 30.11 in 1.8 mi NW 10.4 mph 17.3 mph 0.00 in Snow Light Snow
1:39 PM 15.8 °F 6.1 °F 6.8 °F 68% 30.11 in 3.0 mi Variable 6.9 mph 17.3 mph 0.00 in Snow Light Snow
1:52 PM 16.0 °F 4.4 °F 3.0 °F 57% 30.18 in 10.0 mi WNW 9.2 mph - 0.00 in   Overcast
2:52 PM 16.0 °F 4.4 °F -0.9 °F 47% 30.18 in 10.0 mi NW 9.2 mph - N/A   Mostly Cloudy
3:52 PM 17.1 °F 6.6 °F -2.0 °F 43% 30.19 in 10.0 mi NW 8.1 mph - N/A   Clear
4:52 PM 16.0 °F 6.3 °F -0.0 °F 49% 30.20 in 10.0 mi NNW 6.9 mph - N/A   Mostly Cloudy
5:52 PM 15.1 °F 6.4 °F -0.0 °F 51% 30.22 in 10.0 mi NW 5.8 mph - N/A   Mostly Cloudy
6:52 PM 14.0 °F 6.5 °F 1.0 °F 56% 30.23 in 10.0 mi WNW 4.6 mph - N/A   Partly Cloudy
7:52 PM 10.9 °F 4.7 °F -0.0 °F 61% 30.24 in 10.0 mi WNW 3.5 mph - N/A   Clear
8:52 PM 8.1 °F 1.4 °F -0.9 °F 67% 30.25 in 10.0 mi West 3.5 mph - N/A   Clear
9:52 PM 6.1 °F -0.9 °F -0.0 °F 76% 30.25 in 10.0 mi West 3.5 mph - N/A   Clear
10:52 PM 9.0 °F 2.4 °F -0.0 °F 67% 30.23 in 10.0 mi West 3.5 mph - N/A   Clear
11:52 PM 5.0 °F -2.1 °F -0.9 °F 76% 30.24 in 10.0 mi West 3.5 mph - N/A   Clear